Location: Eyeline Observatory
(43.2182°N, 78.8632°W)
Time: 00:01:41
(UTC-04:00)

Vanguard 2 - Pass Details

Date: 31 January 2018
Orbit: 552 x 2940 km, 32.9° (Epoch: 21 May)

Event Time Altitude Azimuth Distance (km) Brightness Sun altitude
Rises 06:50:09 0° 262° (W) 4,381 - -8.0°
Exits shadow 06:51:18 - 257° (WSW) 4,173 10.7 -7.8°
Reaches altitude 10° 06:54:02 10° 244° (WSW) 3,806 10.6 -7.3°
Maximum altitude 07:00:19 18° 206° (SSW) 3,781 11.0 -6.2°
Drops below altitude 10° 07:08:20 10° 171° (S) 5,030 12.1 -4.9°
Sets 07:14:52 0° 155° (SSE) 6,423 13.0 -3.7°
